Regional Weather Roundup
Issued by NWS Newport/Morehead, NC

Current Version | Previous Version | Text Only | Print | Product List | Glossary Off
Versions: 1 2 3 4 5 6 7 8 9 10 11 12 13 14 15 16 17 18 19 20 21 22 23 24 25 26 27 28 29 30 31 32 33 34 35 36 37 38 39 40 41 42 43 44 45 46 47 48 49 50

000
ASUS42 KMHX 281412
RWRMHX
WEATHER ROUNDUP FOR EASTERN NORTH CAROLINA
NATIONAL WEATHER SERVICE NEWPORT/MOREHEAD CITY NC
1000 AM EDT TUE APR 28 2015

NOTE: "FAIR" INDICATES FEW OR NO CLOUDS BELOW 12,000 FEET
WITH NO SIGNIFICANT WEATHER AND/OR OBSTRUCTIONS TO VISIBILITY

NCZ015>017-031-032-045>047-102-103-281500-
NORTH COAST

CITY           SKY/WX    TMP DP  RH WIND       PRES   REMARKS
EDENTON        SUNNY     55  40  58 N9        29.95R
ELIZABETH CITY SUNNY     56  41  57 VRB7      29.92R
KITTY HAWK     SUNNY     55  41  59 NW6       29.89S
MANTEO         SUNNY     54  41  60 N10G17    29.92R

$$

NCZ045>047-081-094-103-104-281500-
CENTRAL COAST

CITY           SKY/WX    TMP DP  RH WIND       PRES   REMARKS
FRISCO         SUNNY     52  41  66 N7        29.92R
SWANQUARTER      N/A     57 N/A N/A N9G18     29.91R

$$

NCZ095-097-098-100-101-281500-
SOUTHERN COAST

CITY           SKY/WX    TMP DP  RH WIND       PRES   REMARKS
BEAUFORT       SUNNY     56  39  53 N13       29.94S
CEDAR ISLAND     N/A     55 N/A N/A NW13      29.97S
JACKSONVILLE   MOSUNNY   56  36  47 N10       29.96S
PINEY ISLAND   MOSUNNY  N/A N/A N/A N15       29.94R
WILMINGTON     PTSUNNY   57  37  47 N9        29.97S


$$

NCZ011>013-027>030-043-044-078>080-089-090>093-098-281500-
COASTAL PLAIN

CITY           SKY/WX    TMP DP  RH WIND       PRES   REMARKS
AHOSKIE        SUNNY     53  38  55 CALM      29.96R
CLINTON        PTSUNNY   56  39  54 NE7       29.99S
ELIZABETHTOWN  PTSUNNY   55  39  54 N3        29.99S
GOLDSBORO      MOSUNNY   54  37  52 N12G20    29.96R
GREENVILLE     MOSUNNY   55  37  50 N9        29.99R
HAVELOCK       MOSUNNY   56  38  50 N13       29.96R
KENANSVILLE    PTSUNNY   55  35  48 N9        29.99S
KINSTON        MOSUNNY   55  37  50 N9        29.98S
NEW BERN       MOSUNNY   56  38  50 N9        29.97R
RICHLANDS      PTSUNNY   55  36  47 NW12      29.97F
ROCKY MOUNT    SUNNY     57  37  47 N9        29.98R
WASHINGTON     MOSUNNY   55  38  52 N12       29.97R
WHITEVILLE     PTSUNNY   56  38  51 N3        29.98S

$$

AMZ130-135-150-152-154-156-158-170-250-252-270-ANZ085-086-088-633-658-670-281500-
MARINE OBSERVATIONS

STATION/POSITION TIME  TEMP    WIND        PRES    WAVE   SWELL
                       AIR SEA DIR/SP/G            HT/PER HT/PER
                 (UTC) (F)     (DEG/KT/KT) (MB)    (FT/S) (FT/S)
CHESAPEAKE LIGHT 1300   51     330/ 17/ 19 1011.9
64 E VA BEACH    1350   52 55  330/ 17/ 21 1010.5    6/ 6
DUCK             1300   51 54  340/ 12/ 16 1011.3
2 E DUCK         1311      54                N/A     3/ 5
OREGON INLET     1300   52 57  320/ 10/ 16 1012.4
13E OREGON INLT  NOT AVBL
HATTERAS CG      1300   52 60  330/ 14/ 16 1012.2
DIAMOND BUOY     1350   54 74  350/ 14/ 19 1012.9    4/ 5   2/ 8
CAPE LOOKOUT     1400   54     340/ 11/ 14 1013.5
BEAUFORT LAB     1300   53 62  360/ 11/ 14 1012.9
27 SE WRIGHTSVLE 1300   56 72   30/ 16/ 19   N/A
5 SE WRIGHTSVLE  1308   56 65   30/ 16/ 21 1014.4
225 S CAPE HAT   1350   68 70  340/ 16/ 17 1011.5    4/ 8   2/ 8
41 SE CHARLESTON 1350   65 72   40/ 16/ 17 1013.8    5/ 6   2/12

$$


USA.gov is the U.S. government's official web portal to all federal, state and local government web resources and services.